Location: Caltech
(34.1382°N, 118.1253°W)
Time: 22:15:10
(UTC-07:00)

JAS-1B - Visible Passes

Search period start: 26 March 2015 00:00
Search period end: 05 April 2015 00:00
Orbit: 911 x 1745 km, 99.1° (Epoch: 26 March)

Date Brightness Start Highest point End Pass type
(mag) Time Alt. Az. Time Alt. Az. Time Alt. Az.
27 Mar 9.9 01:25:48 10° N 01:25:48 10° N 01:25:48 10° N visible
28 Mar 9.8 01:45:02 10° N 01:45:16 11° N 01:45:16 11° N visible
29 Mar 9.7 02:04:26 10° N 02:04:44 11° NNW 02:04:44 11° NNW visible
30 Mar 9.7 02:24:03 10° NNW 02:24:12 11° NNW 02:24:12 11° NNW visible
31 Mar 9.7 00:50:52 10° NNE 00:51:24 13° NNE 00:51:24 13° NNE visible
01 Apr 9.6 01:09:52 10° N 01:10:53 15° N 01:10:53 15° N visible
02 Apr 9.5 01:29:02 10° N 01:30:22 17° N 01:30:22 17° N visible
03 Apr 9.5 01:48:18 10° N 01:49:51 18° NNW 01:49:51 18° NNW visible
04 Apr 9.7 00:16:17 10° NNE 00:17:04 14° NNE 00:17:04 14° NNE visible
04 Apr 9.5 02:07:45 10° NNW 02:09:21 17° NNW 02:09:21 17° NNW visible
